COSMOS 1275 DEB, 12744

Orbit data source: Space-Track

COSMOS 1275 DEB, 12744 is space debris in LEO originally from a launch on Thu, 04 Jun 1981 UTC launched from the Plesetsk Missile And Space Complex (PKMTR). Debris objects in space refer to the collection of defunct objects orbiting the Earth. Examples of debris include non-operational satellites, rocket bodies, and fragments generated from explosions, collisions, or faulty payload assembly.

Loading next visibility...
Identifier
12744, 1981-053CM
Orbit
LEO
Country
Flag of CISCIS
Related business
Manufacturer
Unknown
Mission
Spacecraft
Bus & Motor
Unknown
Mass
Unknown
Launch date (UTC)
1981-06-04 (45 years ago)
Launch vehicle
Unknown
Launch site
Plesetsk Missile And Space Complex (PKMTR)
Object type
Payload
Rocket body
Debris
Shape & HBR
Unknown shape, 0.2 m
Radar Cross Section
Small (<0.1 m²)

Expand to show TLE details & history
Last TLE update: 18 hours ago

TLE from 18 hours ago
0 COSMOS 1275 DEB
1 12744U 81053CM  26071.70832850  .00003098  00000-0  11604-2 0  9998
2 12744  82.9310 179.1997 0018672  60.3085 299.9959 14.31393580276310
Epoch: 2026-03-12T16:59Z
TLE epoch observation values (Epoch: 2026-03-12T16:59:59.582Z)
Latitude
0.00006°
Longitude
113.84711°
Altitude
783.383 km
Speed
7.466 km/s
True Right ascension
11h 56m 47s
True Declination
0° 00' 00"
Sunlit
Object was in full shadow at epoch
Visualization orbit readout
Latitude
Unknown
Longitude
Unknown
Altitude
Unknown
Speed
Unknown
Apparent Right ascension
Unknown
Apparent Declination
Unknown
Sunlit
N/A
Visualization observer readout
Local Sidereal Time
15:49:30
Azimuth
Unknown
Elevation
Unknown
Doppler factor
Unknown
Orbital elements
Apogee altitude
797.521 km
Perigee altitude
770.775 km
Semi-major axis
7,162.285 km
Eccentricity
0.00187
Inclination
82.931°
RAAN
179.1997°
Arg. of periapsis
60.3085°
True anomaly
299.81038°
Mean anomaly
299.9959°
Eccentric anomaly
299.90316°
Mean motion
3.58068 °/min
Orbital period
100.54 mins
BSTAR
0.0011604
Loading maneuver chart data...
Computing Atmospheric mass density...
Loading historical data...
Loading historical data...
Loading historical data...
Loading historical data...
Loading historical data...
Loading historical data...
Loading historical data...

Documentation

Showing up to 5 results
|